Location: Bishopstone
(51.0167°N, 1.9000°W)
Time: 23:46:52
(UTC+00:00)

CSL-04 Rocket - Pass Details

Date: 16 September 2019
Orbit: 806 x 860 km, 99.0° (Epoch: 22 October)

Event Time Altitude Azimuth Distance (km) Brightness Sun altitude
Rises 18:39:42 0° 172° (S) 3,389 6.7 -3.9°
Reaches altitude 10° 18:42:04 10° 176° (S) 2,465 6.0 -4.2°
Maximum altitude 18:47:30 64° 257° (WSW) 947 4.3 -5.1°
Drops below altitude 10° 18:53:03 10° 339° (NNW) 2,507 6.6 -5.9°
Sets 18:55:28 0° 343° (NNW) 3,450 7.3 -6.3°
